Terminal Aerodrome Forecast
Issued by NWS

Home | Current Version | Previous Version | Graphics & Text | Print | Product List | Glossary On
Versions: 1 2 3 4 5 6 7 8 9 10 11 12 13 14 15 16 17 18 19 20 21 22 23 24 25 26 27 28 29 30 31 32 33
000
FTUS43 KABR 301300 AAA
TAFATY
TAF AMD
KATY 301350Z 3014/3112 18010KT P6SM SCT007
     FM301500 20013KT P6SM SCT250
     FM310100 36008KT P6SM BKN250
     FM310800 02012KT P6SM OVC025=

USA.gov is the U.S. government's official web portal to all federal, state and local government web resources and services.